Date_and_time,latitude,longitude,wind_speed,RelWindDirFrom,WindDirFrom,air_pressure,air_temperature,relative_humidity,Temp,platform_speed_wrt_ground,air_pressure_at_mean_sea_level,platform_orientation
2019-11-02 23:40,50.630445,-96.98077,4.9,6.5,214,988.17,0.8,77,2.22,0.0,1015.93,90.0
2019-11-02 23:50,50.6304466666667,-96.9807716666667,5.1,7.1,223,988.24,0.8,77,2.23,0.0,1016.01,90.0
2019-11-03 00:00,50.6304466666667,-96.9807716666667,5.9,8.0,225,988.22,0.7,78,2.22,0.0,1015.99,32.1
2019-11-03 00:10,50.6304483333333,-96.9807733333333,5.8,8.0,229,988.15,0.7,78,2.22,0.0,1015.92,32.1
2019-11-03 00:20,50.6304466666667,-96.9807733333333,4.8,7.4,234,988.20,0.6,77,2.22,0.0,1015.98,32.1
2019-11-03 00:30,50.6304466666667,-96.9807733333333,3.4,5.6,234,988.28,0.6,77,2.22,0.0,1016.06,32.1
2019-11-03 00:40,50.6304466666667,-96.9807733333333,2.8,4.1,243,988.29,0.6,77,2.21,0.0,1016.08,32.1
2019-11-03 00:50,50.6304466666667,-96.9807733333333,2.9,3.6,236,988.25,0.5,77,2.22,0.0,1016.04,32.1
2019-11-03 01:00,50.63044,-96.9807866666667,3.1,4.0,227,988.17,0.4,79,2.22,0.0,1015.97,317.0
2019-11-03 01:10,50.6304566666667,-96.9807666666667,4.0,5.2,216,988.06,0.4,79,2.21,0.0,1015.86,317.0
2019-11-03 01:20,50.6304483333333,-96.980765,4.5,5.7,203,987.89,0.3,80,2.21,0.0,1015.69,317.0
2019-11-03 01:30,50.6304483333333,-96.9807683333333,5.6,7.6,196,987.72,0.3,79,2.22,0.0,1015.52,317.0
2019-11-03 01:40,50.6304483333333,-96.98077,5.6,7.5,204,987.61,0.3,80,2.21,0.0,1015.41,317.0
2019-11-03 01:50,50.6304466666667,-96.9807683333333,5.6,7.7,202,987.53,0.2,80,2.21,0.0,1015.33,317.0
2019-11-03 02:00,50.630445,-96.9807683333333,5.2,6.4,204,987.45,0.2,80,2.21,0.0,1015.26,38.0
2019-11-03 02:10,50.630425,-96.98076,5.2,7.1,206,987.35,0.2,79,2.20,0.0,1015.15,38.0
2019-11-03 02:20,50.630445,-96.9807716666667,4.6,6.7,207,987.25,0.2,79,2.19,0.0,1015.06,38.0
2019-11-03 02:30,50.6304483333333,-96.980775,6.7,8.1,205,987.09,0.3,78,2.18,0.0,1014.89,38.0
2019-11-03 02:40,50.63045,-96.9807766666667,5.9,8.6,200,987.00,0.3,77,2.18,0.0,1014.80,38.0
2019-11-03 02:50,50.6304466666667,-96.9807666666667,3.5,5.3,206,987.02,0.3,77,2.17,0.0,1014.82,38.0
2019-11-03 03:00,50.630445,-96.9807683333333,3.5,4.6,202,986.90,0.1,77,2.16,0.0,1014.71,167.4
2019-11-03 03:10,50.630445,-96.9807683333333,3.9,5.1,188,986.81,0.1,79,2.15,0.0,1014.63,167.4
2019-11-03 03:20,50.630445,-96.9807683333333,3.8,4.8,180,986.81,-0.0,79,2.14,0.0,1014.62,167.4
2019-11-03 03:30,50.630445,-96.9807666666667,4.3,5.3,185,986.73,-0.1,80,2.14,0.0,1014.55,167.4
2019-11-03 03:40,50.6304483333333,-96.980765,5.5,6.8,188,986.59,-0.2,81,2.14,0.0,1014.42,167.4
2019-11-03 03:50,50.63045,-96.9807883333333,5.9,7.2,191,986.52,-0.2,81,2.14,0.0,1014.35,167.4
2019-11-03 04:00,50.6304466666667,-96.980775,5.9,7.7,193,986.52,-0.2,81,2.14,0.0,1014.35,68.5
2019-11-03 04:10,50.6304466666667,-96.98077,5.4,7.8,201,986.47,-0.2,81,2.14,0.0,1014.29,68.5
2019-11-03 04:20,50.6304466666667,-96.9807683333333,6.4,8.8,196,986.37,-0.1,81,2.14,0.0,1014.18,68.5
2019-11-03 04:30,50.6304483333333,-96.98077,7.1,9.6,190,986.21,-0.0,81,2.14,0.0,1014.01,68.5
2019-11-03 04:40,50.6304466666667,-96.98077,6.0,8.2,188,986.12,0.0,81,2.13,0.0,1013.92,68.5
2019-11-03 04:50,50.6304483333333,-96.9807866666667,5.7,8.4,188,986.06,0.0,81,2.13,0.0,1013.87,68.5
2019-11-03 05:00,50.6304533333333,-96.9807716666667,6.2,8.7,191,986.03,0.1,81,2.13,0.0,1013.83,345.5
2019-11-03 05:10,50.63045,-96.9807633333333,5.1,6.7,195,986.04,0.0,82,2.13,0.0,1013.85,345.5
2019-11-03 05:20,50.6304516666667,-96.980765,5.4,8.3,196,985.99,0.1,81,2.13,0.0,1013.81,345.5
2019-11-03 05:30,50.63045,-96.9807666666667,4.6,6.3,202,985.96,0.1,82,2.13,0.0,1013.78,345.5
2019-11-03 05:40,50.63045,-96.9807683333333,5.5,7.5,197,985.84,0.0,82,2.13,0.0,1013.65,345.5
2019-11-03 05:50,50.6304483333333,-96.9807683333333,5.8,7.6,198,985.74,0.0,82,2.13,0.0,1013.56,345.5
2019-11-03 06:00,50.6304466666667,-96.9807683333333,5.6,7.9,206,985.71,-0.1,83,2.13,0.0,1013.52,360.0
2019-11-03 06:10,50.63044,-96.9807866666667,5.8,8.1,203,985.64,-0.2,84,2.13,0.0,1013.46,360.0
2019-11-03 06:20,50.6304433333333,-96.98078,5.8,8.3,198,985.56,-0.2,85,2.13,0.0,1013.37,360.0
2019-11-03 06:30,50.630445,-96.9807716666667,6.6,7.9,191,985.45,-0.3,86,2.13,0.0,1013.26,360.0
2019-11-03 06:40,50.6304466666667,-96.9807716666667,6.7,8.8,195,985.37,-0.4,87,2.13,0.0,1013.18,360.0
2019-11-03 06:50,50.6304466666667,-96.98077,7.2,9.2,197,985.23,-0.4,87,2.13,0.0,1013.04,360.0
2019-11-03 07:00,50.6304466666667,-96.98077,7.2,9.1,191,985.08,-0.4,87,2.12,0.0,1012.88,90.0
2019-11-03 07:10,50.630445,-96.9807683333333,7.1,9.3,196,985.01,-0.4,87,2.13,0.0,1012.81,90.0
2019-11-03 07:20,50.630445,-96.9807666666667,7.9,10.1,195,984.85,-0.3,86,2.13,0.0,1012.64,90.0
2019-11-03 07:30,50.630445,-96.9807683333333,7.8,9.5,189,984.78,-0.3,87,2.12,0.0,1012.57,90.0
2019-11-03 07:40,50.630445,-96.9807683333333,6.7,9.0,191,984.83,-0.3,87,2.12,0.0,1012.62,90.0
2019-11-03 07:50,50.630445,-96.9807666666667,6.5,8.2,191,984.82,-0.4,87,2.12,0.0,1012.62,90.0
2019-11-03 08:00,50.6304466666667,-96.9807666666667,5.2,6.8,201,984.87,-0.4,87,2.12,0.0,1012.68,131.7
2019-11-03 08:10,50.6304466666667,-96.9807666666667,4.1,5.7,209,984.84,-0.5,87,2.12,0.0,1012.65,131.7
2019-11-03 08:20,50.6304466666667,-96.9807666666667,3.6,6.0,217,984.87,-0.6,88,2.12,0.0,1012.69,131.7
2019-11-03 08:30,50.6304466666667,-96.9807716666667,4.5,5.9,207,984.80,-0.6,89,2.12,0.0,1012.63,131.7
2019-11-03 08:40,50.6304433333333,-96.98075,5.7,6.9,203,984.67,-0.7,90,2.12,0.0,1012.50,131.7
2019-11-03 08:50,50.63045,-96.9807866666667,6.7,8.1,196,984.53,-0.7,90,2.11,0.0,1012.35,131.7
2019-11-03 09:00,50.630445,-96.980775,7.0,8.8,191,984.42,-0.7,91,2.10,0.0,1012.24,192.6
2019-11-03 09:10,50.6304433333333,-96.98077,6.1,7.7,195,984.39,-0.7,91,2.10,0.0,1012.21,192.6
2019-11-03 09:20,50.630455,-96.980795,6.2,8.0,189,984.35,-0.8,92,2.10,0.0,1012.17,192.6
2019-11-03 09:30,50.63045,-96.9807866666667,6.7,7.7,188,984.29,-0.8,93,2.10,0.0,1012.11,192.6
2019-11-03 09:40,50.6304483333333,-96.980785,6.5,7.7,190,984.26,-0.9,94,2.10,0.0,1012.08,192.6
2019-11-03 09:50,50.6304416666667,-96.9807583333333,5.8,7.8,198,984.20,-0.9,94,2.09,0.0,1012.03,192.6
2019-11-03 10:00,50.6304466666667,-96.9807616666667,5.1,7.0,204,984.18,-0.9,93,2.09,0.0,1012.01,90.0
2019-11-03 10:10,50.63045,-96.980765,5.5,6.9,201,984.11,-0.9,93,2.09,0.0,1011.94,90.0
2019-11-03 10:20,50.63045,-96.980765,5.9,7.7,197,984.04,-0.9,93,2.09,0.0,1011.87,90.0
2019-11-03 10:30,50.63045,-96.9807666666667,6.0,7.6,195,984.02,-0.9,93,2.09,0.0,1011.86,90.0
2019-11-03 10:40,50.6304483333333,-96.9807683333333,6.0,8.0,200,983.94,-0.9,93,2.09,0.0,1011.78,90.0
2019-11-03 10:50,50.6304466666667,-96.9807833333333,6.4,8.0,200,983.85,-1.0,93,2.08,0.0,1011.69,90.0
2019-11-03 11:00,50.6304433333333,-96.9807716666667,6.3,8.5,203,983.80,-1.0,93,2.08,0.0,1011.63,192.6
2019-11-03 11:10,50.630445,-96.980775,6.2,9.0,208,983.81,-1.1,94,2.08,0.0,1011.65,192.6
2019-11-03 11:20,50.630445,-96.9807733333333,6.9,8.8,208,983.78,-1.2,94,2.08,0.0,1011.63,192.6
2019-11-03 11:30,50.6304283333333,-96.9807983333333,6.5,8.5,214,983.76,-1.3,95,2.07,0.0,1011.62,192.6
2019-11-03 11:40,50.63045,-96.9807983333333,6.3,7.9,214,983.71,-1.3,95,2.07,0.0,1011.58,192.6
2019-11-03 11:50,50.6304483333333,-96.9807933333333,6.3,8.0,214,983.67,-1.4,96,2.07,0.0,1011.53,192.6
2019-11-03 12:00,50.63045,-96.98079,5.8,8.2,224,983.65,-1.4,96,2.07,0.0,1011.51,317.2
2019-11-03 12:10,50.63045,-96.9807866666667,4.6,6.2,230,983.57,-1.5,96,2.07,0.0,1011.43,317.2
2019-11-03 12:20,50.6304483333333,-96.980785,5.5,7.3,220,983.48,-1.5,97,2.07,0.0,1011.35,317.2
2019-11-03 12:30,50.6304516666667,-96.9807866666667,5.2,6.7,219,983.41,-1.5,97,2.07,0.0,1011.28,317.2
2019-11-03 12:40,50.6304316666667,-96.9807733333333,5.3,7.3,224,983.38,-1.6,97,2.07,0.0,1011.25,317.2
2019-11-03 12:50,50.6304516666667,-96.9807916666667,6.1,7.8,213,983.36,-1.7,98,2.07,0.0,1011.24,317.2
2019-11-03 13:00,50.630425,-96.9807733333333,7.0,8.6,209,983.29,-1.8,99,2.07,0.0,1011.17,212.1
2019-11-03 13:10,50.6304383333333,-96.980775,6.2,7.9,213,983.30,-1.7,99,2.06,0.0,1011.19,212.1
2019-11-03 13:20,50.6304433333333,-96.9807733333333,5.0,6.4,218,983.34,-1.7,99,2.05,0.0,1011.23,212.1
2019-11-03 13:30,50.6304333333333,-96.980795,5.7,7.2,207,983.32,-1.7,99,2.04,0.0,1011.21,212.1
2019-11-03 13:40,50.630435,-96.98077,5.7,7.4,202,983.29,-1.6,98,2.03,0.0,1011.17,212.1
2019-11-03 13:50,50.63043,-96.9807733333333,5.2,7.3,207,983.32,-1.6,98,2.03,0.0,1011.21,212.1
2019-11-03 14:00,50.6304333333333,-96.9807716666667,4.9,6.8,209,983.33,-1.5,98,2.03,0.0,1011.22,142.0
2019-11-03 14:10,50.6304316666667,-96.9807766666667,4.9,6.6,208,983.34,-1.5,97,2.03,0.0,1011.24,142.0
2019-11-03 14:20,50.63042,-96.9808016666667,4.7,6.8,213,983.35,-1.4,96,2.03,0.0,1011.24,142.0
2019-11-03 14:30,50.6304266666667,-96.9807883333333,4.5,6.5,213,983.38,-1.4,96,2.03,0.0,1011.27,142.0
2019-11-03 14:40,50.6304466666667,-96.9807616666667,3.6,5.3,210,983.38,-1.4,95,2.04,0.0,1011.28,142.0
2019-11-03 14:50,50.6304566666667,-96.980775,3.8,4.9,209,983.44,-1.3,95,2.04,0.0,1011.34,142.0
2019-11-03 15:00,50.6304383333333,-96.9807733333333,4.1,5.2,219,983.53,-1.2,94,2.04,0.0,1011.42,130.6
2019-11-03 15:10,50.6304416666667,-96.980775,4.8,7.3,205,983.40,-1.2,94,2.04,0.0,1011.29,130.6
2019-11-03 15:20,50.6304416666667,-96.9807733333333,3.9,5.2,215,983.36,-1.1,94,2.05,0.0,1011.23,130.6
2019-11-03 15:30,50.6304433333333,-96.9807733333333,4.1,5.1,211,983.32,-1.0,93,2.05,0.0,1011.19,130.6
2019-11-03 15:40,50.6304433333333,-96.980775,4.4,5.4,207,983.31,-0.9,93,2.05,0.0,1011.17,130.6
2019-11-03 15:50,50.6304416666667,-96.9807733333333,4.0,5.3,217,983.41,-0.8,92,2.05,0.0,1011.27,130.6
2019-11-03 16:00,50.63044,-96.9807816666667,3.7,4.8,215,983.48,-0.7,92,2.05,0.0,1011.33,327.5
2019-11-03 16:10,50.6304733333333,-96.980765,3.4,4.5,208,983.45,-0.6,91,2.05,0.0,1011.29,327.5
2019-11-03 16:20,50.6304533333333,-96.9807633333333,3.5,4.7,211,983.46,-0.4,91,2.05,0.0,1011.29,327.5
2019-11-03 16:30,50.630445,-96.980765,3.9,5.3,194,983.40,-0.4,91,2.06,0.0,1011.22,327.5
2019-11-03 16:40,50.6304433333333,-96.9807633333333,4.2,5.4,206,983.40,-0.2,90,2.06,0.0,1011.22,327.5
2019-11-03 16:50,50.63044,-96.9807633333333,4.7,6.2,208,983.45,-0.1,89,2.05,0.0,1011.26,327.5
2019-11-03 17:00,50.63044,-96.980765,3.6,4.9,221,983.43,0.1,88,2.05,0.0,1011.23,14.5
2019-11-03 17:10,50.6304383333333,-96.980765,3.3,4.9,224,983.45,0.3,86,2.06,0.0,1011.22,14.5
2019-11-03 17:20,50.63044,-96.980775,2.9,4.2,221,983.47,0.5,86,2.06,0.0,1011.24,14.5
2019-11-03 17:30,50.63045,-96.9808033333333,2.5,3.5,207,983.34,0.5,85,2.06,0.0,1011.10,14.5
2019-11-03 17:40,50.6304383333333,-96.9807783333333,2.4,3.6,188,983.26,0.6,85,2.06,0.0,1011.00,14.5
2019-11-03 17:50,50.6304366666667,-96.980775,2.5,3.3,178,983.17,0.7,85,2.07,0.0,1010.91,14.5
2019-11-03 18:00,50.630435,-96.9807716666667,2.8,4.0,184,983.10,0.9,85,2.07,0.0,1010.82,360.0
2019-11-03 18:10,50.6304366666667,-96.98077,2.6,3.6,188,983.01,0.9,84,2.08,0.0,1010.71,360.0
2019-11-03 18:20,50.6304366666667,-96.9807683333333,2.6,4.0,221,982.96,1.1,84,2.09,0.0,1010.64,360.0
2019-11-03 18:30,50.63044,-96.9807783333333,2.7,4.2,222,982.91,1.2,84,2.09,0.0,1010.59,360.0
2019-11-03 18:40,50.6304416666667,-96.9807766666667,2.4,3.5,231,982.83,1.2,86,2.09,0.0,1010.50,360.0
2019-11-03 18:50,50.6304433333333,-96.98078,2.5,3.7,226,982.80,1.1,87,2.10,0.0,1010.45,360.0
2019-11-03 19:00,50.6304433333333,-96.98078,1.9,3.5,233,982.76,1.1,88,2.10,0.0,1010.41,90.0
2019-11-03 19:10,50.6304416666667,-96.9807766666667,2.4,3.7,276,982.74,1.2,91,2.11,0.0,1010.37,90.0
2019-11-03 19:20,50.6304433333333,-96.9807766666667,2.6,3.5,295,982.67,1.2,93,2.12,0.0,1010.30,90.0
2019-11-03 19:30,50.6304416666667,-96.9807766666667,2.1,3.9,294,982.66,1.2,94,2.12,0.0,1010.28,90.0
2019-11-03 19:40,50.6304416666667,-96.9807766666667,2.3,3.5,296,982.66,1.2,96,2.13,0.0,1010.28,90.0
2019-11-03 19:50,50.63044,-96.9807766666667,2.4,4.3,344,982.69,1.1,99,2.13,0.0,1010.30,90.0
2019-11-03 20:00,50.6304383333333,-96.9807766666667,3.9,6.1,348,982.69,1.0,99,2.14,0.0,1010.31,270.0
2019-11-03 20:10,50.6304383333333,-96.9807766666667,5.2,7.6,345,982.71,0.9,99,2.14,0.0,1010.32,270.0
2019-11-03 20:20,50.6304383333333,-96.980775,6.8,9.3,348,982.73,0.9,99,2.14,0.0,1010.35,270.0
2019-11-03 20:30,50.6304383333333,-96.9807766666667,9.1,11.6,356,982.74,0.9,99,2.15,0.0,1010.36,270.0
2019-11-03 20:40,50.6304383333333,-96.980775,12.1,16.0,1,982.72,0.7,99,2.15,0.0,1010.35,270.0
2019-11-03 20:50,50.6304383333333,-96.980775,13.4,16.9,3,982.77,0.3,99,2.16,0.0,1010.41,270.0
2019-11-03 21:00,50.63044,-96.9807783333333,14.2,17.2,2,982.83,0.2,98,2.17,0.0,1010.48,305.3
2019-11-03 21:10,50.630445,-96.980775,12.8,16.0,358,982.90,0.1,96,2.18,0.0,1010.56,305.3
2019-11-03 21:20,50.6304416666667,-96.9807816666667,12.4,15.3,0,982.96,0.1,95,2.18,0.0,1010.62,305.3
2019-11-03 21:30,50.63041,-96.9807666666667,12.2,16.3,1,983.05,0.2,95,2.18,0.0,1010.71,305.3
2019-11-03 21:40,50.63042,-96.9807666666667,12.4,15.5,359,983.11,0.1,95,2.18,0.0,1010.78,305.3
2019-11-03 21:50,50.6304233333333,-96.9807683333333,12.5,15.9,359,983.20,0.1,96,2.18,0.0,1010.88,305.3
2019-11-03 22:00,50.6304216666667,-96.98077,11.3,16.3,1,983.32,0.1,94,2.20,0.0,1011.00,142.3
2019-11-03 22:10,50.6304233333333,-96.9807716666667,10.1,13.4,359,983.43,0.0,96,2.21,0.0,1011.12,142.3
2019-11-03 22:20,50.630425,-96.9807716666667,10.3,12.8,358,983.45,0.0,97,2.22,0.0,1011.14,142.3
2019-11-03 22:30,50.6304283333333,-96.9807716666667,10.8,14.6,358,983.45,-0.0,95,2.24,0.0,1011.15,142.3
2019-11-03 22:40,50.6304283333333,-96.9807733333333,10.0,12.4,359,983.58,0.0,95,2.25,0.0,1011.30,142.3
2019-11-03 22:50,50.6304266666667,-96.9807733333333,8.9,12.3,348,983.69,0.0,95,2.27,0.0,1011.42,142.3
2019-11-03 23:00,50.6304216666667,-96.9807883333333,9.4,12.2,350,983.76,-0.1,96,2.27,0.0,1011.51,207.4
2019-11-03 23:10,50.63043,-96.9807866666667,7.7,10.9,345,983.85,-0.2,96,2.27,0.0,1011.60,207.4
2019-11-03 23:20,50.63043,-96.9807783333333,6.6,9.6,341,983.91,-0.2,95,2.28,0.0,1011.67,207.4
2019-11-03 23:30,50.6304316666667,-96.9807783333333,6.8,8.9,335,984.00,-0.3,94,2.28,0.0,1011.76,207.4
2019-11-03 23:40,50.6304333333333,-96.980775,6.2,8.9,327,984.05,-0.4,94,2.28,0.0,1011.82,207.4
2019-11-03 23:50,50.630435,-96.9807766666667,5.8,8.0,332,984.03,-0.4,94,2.28,0.0,1011.80,207.4
